[[{"header":{"parameterUnit":"m.s-1","parameterCategory":1,"la1":30.2991,"la2":30.254,"lo1":-89.0895,"lo2":-89.0444,"dy":0.0017,"dx":0.0017,"nx":28,"ny":28,"refTime":"2026-02-16T09:00:00:Z","depth":0,"parameterNumber":2,"parameterNumberName":"U-component_of_WINDS"},"data":[0,0,0,0,0,0,0,0,0,0,0,0,0,0,0,0,0,0,0,0,0,0,0,0,0,0,0,0,0,0,0,0,0,0,0,0,0,0,0,0,0,0,0,0,0,0,0,0,0,0,0,0,0,0,0,0,0,0,-0.224,-0.224,0,-0.2229,-0.2229,-0.2229,-0.2229,-0.2229,-0.2229,-0.2229,-0.2219,-0.2219,-0.2218,0,0,0,0,0,0,0,0,0,0,0,0,0,-0.2265,-0.2264,-0.224,-0.224,-0.224,-0.2229,-0.2229,-0.2228,-0.2229,-0.2229,-0.2229,-0.2229,-0.2219,-0.2219,-0.2218,0,0,0,0,0,0,0,0,0,0,0,0,0,-0.2254,-0.2264,-0.224,-0.2239,-0.2238,-0.2229,-0.2229,-0.2228,-0.2229,-0.2229,-0.2229,-0.2229,-0.2219,-0.2219,-0.2218,-0.221,0,0,-0.2216,-0.2216,0,0,0,0,0,0,0,0,-0.2255,-0.2253,-0.2239,-0.2239,-0.2238,-0.223,-0.2234,-0.2222,-0.2229,-0.2232,-0.2229,-0.223,-0.2223,-0.2222,-0.2219,-0.2209,-0.2209,-0.2216,-0.2216,-0.2216,-0.2215,0,0,0,0,0,0,0,-0.2255,-0.2254,-0.2236,-0.2239,-0.2238,-0.224,-0.2238,-0.2232,-0.2227,-0.2232,-0.2232,-0.2231,-0.2223,-0.222,-0.2219,-0.2209,-0.2216,-0.2216,-0.2215,-0.2215,-0.2195,-0.2195,0,0,0,0,0,0,-0.2256,-0.2254,-0.2236,-0.2235,-0.2247,-0.2239,-0.2237,-0.2233,-0.2227,-0.2226,-0.2231,-0.2231,-0.2221,-0.222,-0.2219,-0.2211,-0.2216,-0.2215,-0.2215,-0.2195,-0.2195,-0.2195,0,0,0,0,0,0,-0.2257,-0.2254,-0.2236,-0.2245,-0.2242,-0.2238,-0.2233,-0.2232,-0.223,-0.2225,-0.2225,-0.2228,-0.2221,-0.222,-0.2213,-0.221,-0.2215,-0.2214,-0.2195,-0.2195,-0.2195,-0.2193,0,0,0,0,0,0,-0.2257,-0.2255,-0.225,-0.2245,-0.2242,-0.2229,-0.2233,-0.2232,-0.2228,-0.2229,-0.2223,-0.2223,-0.2221,-0.2214,-0.2212,-0.2209,-0.2214,-0.2196,-0.2195,-0.2195,-0.2193,-0.2192,-0.2192,0,0,0,0,0,-0.2258,-0.225,-0.225,-0.2248,-0.2236,-0.2229,-0.2228,-0.2226,-0.2228,-0.2225,-0.2223,-0.2223,-0.2211,-0.2213,-0.2211,-0.2208,-0.2196,-0.2195,-0.2195,-0.2193,-0.2193,-0.2192,0,0,0,0,0,0,-0.2254,-0.2249,-0.2249,-0.2238,-0.2234,-0.2229,-0.2224,-0.2225,-0.222,-0.222,-0.2219,-0.2218,-0.2211,-0.2209,-0.2212,-0.2202,-0.2204,-0.2203,-0.2203,-0.2202,-0.2202,-0.2202,-0.2213,0,0,0,0,0,-0.2253,-0.2246,-0.2242,-0.2233,-0.2231,-0.2228,-0.2225,-0.2224,-0.222,-0.2218,-0.2215,-0.2212,-0.2208,-0.2205,-0.2201,-0.2193,-0.2193,-0.2191,-0.219,-0.219,-0.2189,-0.2188,-0.2187,-0.2194,-0.2194,-0.2194,0,0,-0.2248,-0.2244,-0.224,-0.2232,-0.2229,-0.2224,-0.2226,-0.222,-0.2217,-0.2217,-0.2211,-0.2209,-0.2206,-0.2199,-0.2196,-0.2197,-0.2188,-0.2189,-0.2189,-0.2188,-0.2187,-0.2187,-0.2186,-0.2193,-0.2193,-0.2194,0,0,-0.2238,-0.2233,-0.2227,-0.2224,-0.2219,-0.2218,-0.2217,-0.2212,-0.2211,-0.2205,-0.2206,-0.2203,-0.2195,-0.2193,-0.2191,-0.2184,-0.2185,-0.2183,-0.218,-0.2179,-0.2178,-0.2178,-0.2177,-0.2177,-0.2182,-0.2182,-0.2182,0,-0.2233,-0.2224,-0.2223,-0.2218,-0.2215,-0.2216,-0.221,-0.2208,-0.2202,-0.2201,-0.2202,-0.2195,-0.2192,-0.2187,-0.2185,-0.2183,-0.2183,-0.2183,-0.2178,-0.2178,-0.2177,-0.2177,-0.2176,-0.2182,-0.2182,-0.2182,-0.2182,0,-0.2219,-0.2214,-0.2209,-0.2205,-0.2202,-0.2196,-0.2195,-0.2193,-0.2193,-0.2193,-0.2188,-0.2186,-0.2182,-0.2181,-0.218,-0.2176,-0.2177,-0.2178,-0.2181,-0.2177,-0.2176,-0.2176,-0.2182,-0.2182,-0.2182,-0.2182,0,0,-0.2204,-0.2201,-0.2199,-0.2199,-0.2195,-0.2192,-0.2187,-0.2184,-0.2183,-0.218,-0.2178,-0.2173,-0.2175,-0.2173,-0.2173,-0.2172,-0.2169,-0.2174,-0.2174,-0.2174,-0.2167,-0.2166,-0.2166,-0.217,-0.217,-0.217,-0.2168,0,-0.2194,-0.2186,-0.2186,-0.2179,-0.2175,-0.2178,-0.2175,-0.2173,-0.2173,-0.2171,-0.2172,-0.2169,-0.2171,-0.217,-0.2169,-0.217,-0.2168,-0.217,-0.2169,-0.2169,-0.217,-0.2165,-0.2164,-0.2161,-0.2167,-0.2167,-0.2167,0,-0.218,-0.2178,-0.2171,-0.2171,-0.2169,-0.2166,-0.2165,-0.2162,-0.2162,-0.2163,-0.2162,-0.2163,-0.2161,-0.2164,-0.2163,-0.2164,-0.2165,-0.2165,-0.2165,-0.2165,-0.2168,-0.2166,-0.216,-0.216,-0.2166,-0.2166,-0.2166,0,-0.2172,-0.2167,-0.2162,-0.2161,-0.2161,-0.2159,-0.2159,-0.2159,-0.2158,-0.2158,-0.2158,-0.2157,-0.2157,-0.2157,-0.2159,-0.2161,-0.2158,-0.2161,-0.216,-0.216,-0.2159,-0.2159,-0.2154,-0.2158,-0.2158,-0.2158,-0.2158,0,-0.2161,-0.2156,-0.2159,-0.2156,-0.2152,-0.2154,-0.2151,-0.2151,-0.2152,-0.2151,-0.2153,-0.2152,-0.2155,-0.2155,-0.2157,-0.2157,-0.2156,-0.2158,-0.2159,-0.2158,-0.2158,-0.2158,-0.2158,-0.2158,-0.2158,-0.2158,-0.2158,0,-0.215,-0.2151,-0.2147,-0.2147,-0.2148,-0.2145,-0.2147,-0.2145,-0.2147,-0.2145,-0.2145,-0.2148,-0.2148,-0.2151,-0.2152,-0.2153,-0.2153,-0.2154,-0.2153,-0.2153,-0.2153,-0.2154,-0.2148,-0.2149,-0.2152,-0.2152,-0.2152,0,-0.2142,-0.2139,-0.2141,-0.214,-0.214,-0.2139,-0.2139,-0.2141,-0.2141,-0.2143,-0.2142,-0.2143,-0.2143,-0.2145,-0.2147,-0.2149,-0.215,-0.2149,-0.215,-0.2151,-0.2152,-0.2152,-0.2153,-0.2148,-0.2148,-0.2148,-0.2148,0,-0.213,-0.2132,-0.2131,-0.2131,-0.2131,-0.2131,-0.2132,-0.2131,-0.2135,-0.2135,-0.2136,-0.2136,-0.2139,-0.214,-0.2143,-0.2145,-0.2148,-0.2148,-0.2148,-0.2147,-0.2147,-0.2149,-0.2153,-0.2147,-0.2147,-0.2147,-0.2147,-0.2147,-0.2121,-0.212,-0.2121,-0.2121,-0.2122,-0.2124,-0.2123,-0.2125,-0.2126,-0.2128,-0.213,-0.2131,-0.2134,-0.2138,-0.214,-0.2143,-0.2144,-0.2143,-0.2144,-0.2144,-0.2144,-0.2147,-0.2143,-0.2143,-0.2143,-0.2143,-0.2143,0,-0.211,-0.2112,-0.2112,-0.2113,-0.2114,-0.2117,-0.2119,-0.212,-0.212,-0.2123,-0.2124,-0.2127,-0.213,-0.2134,-0.2137,-0.2138,-0.214,-0.2139,-0.2139,-0.214,-0.2142,-0.2142,-0.2138,-0.2138,-0.2138,-0.2138,-0.2138,-0.2138,-0.2105,-0.2103,-0.2105,-0.2106,-0.2108,-0.2109,-0.211,-0.2112,-0.2114,-0.2117,-0.2119,-0.2122,-0.2126,-0.213,-0.2134,-0.2135,-0.2137,-0.2136,-0.2138,-0.2139,-0.214,-0.214,-0.214,-0.2136,-0.2136,-0.2136,-0.2136,-0.2136]},{"header":{"parameterUnit":"m.s-1","parameterCategory":1,"la1":30.2991,"la2":30.254,"lo1":-89.0895,"lo2":-89.0444,"dy":0.0017,"dx":0.0017,"nx":28,"ny":28,"refTime":"2026-02-16T09:00:00:Z","depth":0,"parameterNumber":3,"parameterNumberName":"V-component_of_WINDS"},"data":[0,0,0,0,0,0,0,0,0,0,0,0,0,0,0,0,0,0,0,0,0,0,0,0,0,0,0,0,0,0,0,0,0,0,0,0,0,0,0,0,0,0,0,0,0,0,0,0,0,0,0,0,0,0,0,0,0,0,0.7202,0.7201,0,0.7152,0.7151,0.7151,0.7122,0.7121,0.7121,0.7121,0.7069,0.7068,0.7067,0,0,0,0,0,0,0,0,0,0,0,0,0,0.7268,0.7267,0.7202,0.7201,0.72,0.7152,0.7151,0.7151,0.7122,0.7121,0.7121,0.7121,0.707,0.7068,0.7067,0,0,0,0,0,0,0,0,0,0,0,0,0,0.7231,0.7267,0.7202,0.718,0.7178,0.7152,0.7151,0.715,0.7122,0.7121,0.7121,0.7121,0.707,0.7068,0.7066,0.7058,0,0,0.706,0.706,0,0,0,0,0,0,0,0,0.7233,0.7228,0.7184,0.7182,0.7179,0.7143,0.7155,0.7119,0.7122,0.7143,0.7121,0.7121,0.7094,0.709,0.7081,0.7056,0.7053,0.706,0.7059,0.7058,0.7058,0,0,0,0,0,0,0,0.7236,0.723,0.7182,0.7183,0.718,0.7172,0.7166,0.7149,0.712,0.7141,0.7139,0.7133,0.7092,0.7083,0.7079,0.7053,0.706,0.7059,0.7057,0.7057,0.7013,0.7013,0,0,0,0,0,0,0.7242,0.7233,0.7183,0.718,0.7206,0.7171,0.7165,0.7154,0.712,0.7115,0.7134,0.7132,0.7086,0.7082,0.7077,0.7063,0.7058,0.7057,0.7055,0.7013,0.7013,0.7013,0,0,0,0,0,0,0.7243,0.7238,0.7185,0.7206,0.7199,0.717,0.7159,0.7154,0.7144,0.7114,0.7109,0.7129,0.7086,0.708,0.7062,0.7061,0.7056,0.7054,0.7013,0.7013,0.7013,0.7035,0,0,0,0,0,0,0.7246,0.7239,0.7236,0.7206,0.7198,0.7172,0.7159,0.7153,0.7141,0.7139,0.7109,0.7104,0.7085,0.7065,0.706,0.7058,0.7052,0.7013,0.7013,0.7013,0.7034,0.7036,0.7037,0,0,0,0,0,0.7248,0.7245,0.7236,0.723,0.7194,0.7172,0.7167,0.7146,0.7141,0.7137,0.7118,0.7105,0.7062,0.7064,0.7058,0.7055,0.7013,0.7013,0.7013,0.7034,0.7036,0.7037,0,0,0,0,0,0,0.7276,0.7241,0.7231,0.7218,0.7198,0.7167,0.7163,0.715,0.7131,0.7129,0.7104,0.7097,0.7081,0.7066,0.7069,0.7043,0.7036,0.7035,0.7053,0.7055,0.7056,0.706,0.7051,0,0,0,0,0,0.728,0.7267,0.7236,0.7228,0.7218,0.7192,0.7182,0.7167,0.7146,0.7137,0.7116,0.7095,0.7076,0.7065,0.7046,0.7032,0.7023,0.7027,0.7028,0.7029,0.7028,0.7016,0.7016,0.7014,0.7014,0.7014,0,0,0.729,0.7269,0.7262,0.7233,0.7216,0.72,0.7185,0.7171,0.7158,0.7135,0.7116,0.71,0.7074,0.7057,0.7049,0.7044,0.7027,0.7029,0.7031,0.7029,0.7016,0.7017,0.7017,0.7014,0.7014,0.7014,0,0,0.7299,0.7283,0.7272,0.7255,0.7229,0.7211,0.7209,0.7179,0.7167,0.7148,0.7129,0.7114,0.7083,0.7065,0.7051,0.705,0.7036,0.7044,0.7051,0.704,0.704,0.704,0.7037,0.7036,0.7044,0.7044,0.7044,0,0.7314,0.7291,0.7269,0.7254,0.724,0.7218,0.7206,0.719,0.716,0.715,0.7146,0.7104,0.7086,0.7062,0.7062,0.7052,0.7047,0.7048,0.7042,0.7042,0.7041,0.7038,0.7037,0.7045,0.7045,0.7044,0.7044,0,0.7309,0.7293,0.7288,0.7258,0.7244,0.7231,0.7205,0.7193,0.7179,0.7161,0.7139,0.7116,0.7091,0.7084,0.7071,0.7058,0.7055,0.7047,0.7039,0.7043,0.7039,0.7038,0.7046,0.7046,0.7045,0.7045,0,0,0.7335,0.7292,0.729,0.7275,0.7244,0.723,0.7215,0.719,0.7179,0.7158,0.7143,0.7115,0.7106,0.7091,0.7075,0.7065,0.7061,0.7057,0.7055,0.7056,0.7042,0.7048,0.7047,0.7052,0.7052,0.7052,0.7044,0,0.7338,0.731,0.7289,0.7268,0.7251,0.7228,0.7214,0.7192,0.7174,0.7156,0.7136,0.7116,0.7107,0.7097,0.7086,0.7064,0.7058,0.7065,0.7036,0.7035,0.7042,0.7046,0.7053,0.7047,0.7042,0.7042,0.7042,0,0.7339,0.7318,0.7296,0.7263,0.7255,0.7243,0.7217,0.7201,0.7174,0.7162,0.7143,0.7126,0.7106,0.71,0.7071,0.7076,0.7062,0.7049,0.7048,0.7044,0.7038,0.704,0.7044,0.7043,0.704,0.704,0.704,0,0.7357,0.7324,0.7305,0.7293,0.7256,0.7247,0.7231,0.7204,0.719,0.7166,0.7156,0.7131,0.7116,0.7096,0.7071,0.707,0.7043,0.7036,0.703,0.7031,0.7026,0.7026,0.7026,0.7019,0.7019,0.7019,0.7019,0,0.7362,0.7349,0.7313,0.7301,0.7285,0.7259,0.7243,0.7224,0.72,0.7183,0.7161,0.7146,0.7114,0.7094,0.7074,0.7051,0.7046,0.7033,0.7028,0.7034,0.7036,0.7025,0.7024,0.7019,0.7019,0.7019,0.7019,0,0.7381,0.7356,0.7334,0.7299,0.729,0.7279,0.7249,0.7235,0.7216,0.7194,0.7187,0.7156,0.713,0.7103,0.7069,0.7055,0.7032,0.7026,0.7042,0.7038,0.7033,0.7033,0.7026,0.7022,0.7019,0.7019,0.7019,0,0.7385,0.7374,0.7338,0.7325,0.7309,0.7289,0.7273,0.7246,0.7231,0.7198,0.7188,0.7161,0.7138,0.7098,0.7071,0.7043,0.7035,0.7034,0.7031,0.7036,0.7032,0.7033,0.703,0.7035,0.7035,0.7035,0.7035,0,0.7394,0.7382,0.7361,0.7335,0.7317,0.7295,0.7272,0.7263,0.7231,0.7214,0.7188,0.717,0.7133,0.7106,0.7074,0.7056,0.7039,0.7036,0.7033,0.7039,0.7048,0.7041,0.7043,0.7037,0.7037,0.7037,0.7036,0.7036,0.7404,0.7392,0.7364,0.7341,0.732,0.7299,0.7284,0.7262,0.7239,0.7208,0.7193,0.7166,0.7136,0.7093,0.7074,0.7051,0.7046,0.7042,0.7041,0.704,0.7041,0.7052,0.7045,0.7045,0.7045,0.7045,0.7045,0,0.741,0.7391,0.737,0.7338,0.7319,0.7305,0.7278,0.7263,0.724,0.7214,0.7191,0.7159,0.7131,0.7101,0.7071,0.7058,0.7049,0.705,0.7051,0.7046,0.7048,0.7052,0.7058,0.7058,0.7058,0.7058,0.7058,0.7058,0.7412,0.739,0.7374,0.7341,0.7321,0.7295,0.728,0.7259,0.7238,0.7203,0.718,0.7161,0.7132,0.7099,0.7072,0.7063,0.7053,0.7056,0.7045,0.7047,0.7046,0.7045,0.705,0.7054,0.7054,0.7045,0.7045,0.7045]}]]